Flag for Comoros Weather past 2 weeks in Mutsamudu, Comoros

Now
70 °F

Passing clouds.


Feels Like: 70 °F
Forecast: 68 / 77 °F
Wind: 1 mph from North

Location: Dzaoudzi / Pamanzi Mayotte

Current Time: Aug 28, 2015 at 6:14:09 AM

Latest Report: Aug 28, 2015 at 6:00 AM


Visibility: N/A

Pressure: 30.04 "Hg

Humidity: 88%

Dew point: 66 °F

Location of MutsamuduLocation

Historic Weather in Mutsamudu — Graph

°F

Mutsamudu temperature yesterday

Maximum temperature yesterday: 82 °F (at 10:00 AM)
Minimum temperature yesterday: 72 °F (at 12:30 AM)
Average temperature yesterday: 78 °F

Past Weeks' High & Low Weather Summary

 TemperatureHumidityPressure
High86 °F (Aug 15, 1:00 PM)94% (Aug 14, 1:30 AM)30.12 "Hg (Aug 14, 1:30 AM)
Low68 °F (Aug 20, 3:00 AM)55% (Aug 18, 1:00 PM)29.95 "Hg (Aug 18, 2:00 PM)
Average77 °F72%30.04 "Hg
* Reported Aug 13 5:00 AM — Aug 28 5:00 AM, Mutsamudu, Weather by CustomWeather, © 2015

Note: Actual official high and low records may vary slightly from our data, if they occured in-between our weather recording intervals... More about our weather records

Advertising

Mutsamudu weather history for previous 24 hours

 ConditionsComfort  
Time TempWeatherWind HumidityBarometerVisibility
5:00 AM
Fri, Aug 28
70 °FPassing clouds.2 mph94%30.01 "HgN/A
4:30 AM70 °FPassing clouds.1 mph88%30.01 "HgN/A
4:00 AM72 °FMild.No wind88%30.01 "HgN/A
3:30 AM72 °FMild.2 mph88%30.01 "HgN/A
3:00 AM72 °FMild.3 mph88%30.01 "HgN/A
2:30 AM72 °FMild.2 mph88%30.04 "HgN/A
2:00 AM72 °FMild.2 mph88%30.04 "HgN/A
1:30 AM72 °FMild.2 mph83%30.04 "HgN/A
1:00 AM72 °FMild.No wind88%30.04 "HgN/A
12:30 AM72 °FMild.2 mph88%30.04 "HgN/A
12:00 AM73 °FMild.5 mph83%30.07 "HgN/A
11:30 PM
Thu, Aug 27
72 °FMild.5 mph83%30.07 "HgN/A
11:00 PM72 °FMild.2 mph83%30.07 "HgN/A
10:30 PM73 °FMild.1 mph78%30.07 "HgN/A
10:00 PM73 °FMild.3 mph78%30.07 "HgN/A
9:30 PM75 °FMild.2 mph74%30.07 "HgN/A
9:00 PM75 °FMild.3 mph74%30.07 "HgN/A
8:30 PM75 °FMild.2 mph74%30.07 "HgN/A
8:00 PM77 °FWarm.5 mph69%30.07 "HgN/A
7:30 PM77 °FWarm.6 mph69%30.04 "HgN/A
7:00 PM77 °FWarm.7 mph69%30.04 "HgN/A
6:30 PM77 °FWarm.6 mph69%30.04 "HgN/A
6:00 PM79 °FPassing clouds.8 mph65%30.01 "HgN/A
5:30 PM81 °FPassing clouds.6 mph66%30.01 "HgN/A
5:00 PM81 °FPassing clouds.8 mph66%30.01 "HgN/A
4:30 PM82 °FPassing clouds.8 mph66%30.01 "HgN/A
4:00 PM82 °FPassing clouds.6 mph62%30.01 "HgN/A
3:30 PM82 °FPassing clouds.7 mph62%30.01 "HgN/A
3:00 PM82 °FPassing clouds.7 mph62%30.01 "HgN/A
2:30 PM82 °FPassing clouds.7 mph66%30.01 "HgN/A
2:00 PM82 °FPassing clouds.6 mph66%30.01 "HgN/A
1:30 PM82 °FPassing clouds.5 mph66%30.01 "HgN/A
1:08 PM82 °FPassing clouds.6 mph62%30.04 "HgN/A
12:30 PM82 °FPassing clouds.5 mph62%30.04 "HgN/A
12:00 PM82 °FPassing clouds.7 mph58%30.07 "HgN/A
11:30 AM82 °FPassing clouds.8 mph58%30.07 "HgN/A
10:30 AM82 °FPassing clouds.9 mph58%30.07 "HgN/A
10:00 AM82 °FPassing clouds.10 mph58%30.09 "HgN/A
8:30 AM81 °FPassing clouds.12 mph58%30.09 "HgN/A
8:00 AM79 °FPassing clouds.12 mph65%30.07 "HgN/A
7:00 AM77 °FSunny.13 mph65%30.07 "Hg10 mi
6:30 AM77 °FSunny.15 mph65%30.04 "Hg10 mi
6:00 AM77 °FClear.15 mph65%30.04 "Hg10 mi
Weather by CustomWeather, © 2015

See weather overviewHow to use our weather pages